User: anonymous   Login
Location: Carri�res
(48.9069°N, 2.1792°E)
Time: 20:23:08
(UTC+00:00)
Language:

CZ-2C R/B - Orbit

View from above orbital plane
View from above orbital plane
View from above satellite
View from above satellite

Ground track
Ground track

The orbit data is extracted from the following two-line orbital elements,

1 28480U 04046B   21110.60226288  .00000035  00000-0  28068-4 0  9991
2 28480  98.0537 127.2624 0142629  35.7232  73.6944 14.25749939854188
Epoch (UTC): 20 April 2021 14:27:15
Eccentricity: 0.0142629
inclination: 98.0537°
perigee height: 703 km
apogee height: 908 km
right ascension of ascending node: 127.2624°
argument of perigee: 35.7232°
revolutions per day: 14.25749939
mean anomaly at epoch: 73.6944°
orbit number at epoch: 85418

The dashed part of the orbit path shows where the satellite is in the earth's shadow,  

DLR